GW0898 Weather Reports


time (UTC)temp
C
wind
direction
speed
KPH
gust
KPH
rain 1hr
cm
rain 24hr
cm
rain mn
cm
humidity
%
barometer
mb
20260505083735 7 346 0.0 0.0 0.00 0.25 0.25 86 1001.4
20260505083228 7 348 0.0 0.0 0.00 0.25 0.25 85 1001.3
20260505082723 7 348 0.0 0.0 0.03 0.25 0.25 84 1001.4
20260505082222 7 348 0.0 0.0 0.03 0.25 0.25 84 1001.5
20260505081653 7 348 0.0 0.0 0.03 0.25 0.25 83 1001.6
20260505081152 7 348 0.0 1.6 0.03 0.25 0.25 83 1001.6
20260505080650 7 346 0.0 3.2 0.03 0.25 0.25 82 1001.0
20260505080152 7 347 0.0 3.2 0.03 0.25 0.25 82 1001.0
20260505075648 7 346 0.0 3.2 0.03 0.25 0.25 82 1001.0
20260505075145 7 0 0.0 1.6 0.03 0.25 0.25 82 1001.1
20260505074908 7 0 0.0 1.6 0.03 0.25 0.25 81 1001.1
20260505074143 7 0 0.0 4.8 0.03 0.25 0.25 81 1001.1
20260505073621 7 0 1.6 4.8 0.03 0.25 0.25 81 1000.7
20260505073116 7 17 1.6 3.2 0.00 0.23 0.25 82 1000.7
20260505072613 8 0 0.0 3.2 0.00 0.23 0.23 82 1000.7
20260505072112 7 0 0.0 3.2 0.05 0.23 0.23 82 1001.2
20260505071546 7 0 0.0 3.2 0.05 0.23 0.23 82 1001.2
20260505071040 7 0 0.0 1.6 0.10 0.23 0.23 81 1001.2
20260505070530 7 0 1.6 4.8 0.10 0.23 0.23 81 1000.5
20260505070019 7 0 1.6 4.8 0.10 0.23 0.23 80 1000.5
20260505065506 7 0 1.6 6.4 0.15 0.23 0.23 80 1000.5
20260505065006 7 0 1.6 6.4 0.18 0.23 0.23 79 1001.0
20260505064456 7 0 1.6 6.4 0.23 0.23 0.23 80 1001.0
20260505064222 7 0 1.6 6.4 0.23 0.23 0.23 80 1001.0
20260505063451 7 331 0.0 3.2 0.23 0.23 0.23 80 1001.4
20260505063426 8 336 1.6 4.8 0.23 0.23 0.23 79 1001.4
20260505062436 8 0 1.6 4.8 0.18 0.18 0.23 78 1001.4
20260505061936 8 0 0.0 4.8 0.18 0.18 0.18 77 1001.8
20260505061434 8 0 0.0 3.2 0.18 0.18 0.18 76 1001.8
20260505061139 8 0 0.0 3.2 0.13 0.13 0.13 74 1001.9
20260505060633 8 0 0.0 4.8 0.13 0.13 0.13 72 1002.0
20260505055906 9 0 1.6 6.4 0.13 0.13 0.13 70 1002.0
20260505055359 9 0 1.6 8.0 0.08 0.08 0.08 67 1002.4
20260505054859 10 0 1.6 8.0 0.05 0.05 0.05 64 1002.4
20260505054619 10 0 1.6 6.4 0.00 0.00 0.00 62 1002.5
20260505053858 10 0 1.6 6.4 0.00 0.00 0.00 58 1002.2
20260505053359 10 0 1.6 8.0 0.00 0.00 0.00 57 1002.2
20260505052830 11 0 3.2 14.5 0.00 0.00 0.00 54 1002.4
20260505052324 11 313 4.8 14.5 0.00 0.00 0.00 49 1001.7
20260505051813 11 28 4.8 14.5 0.00 0.00 0.00 46 1001.7
20260505051312 11 48 4.8 16.1 0.00 0.00 0.00 46 1001.7
20260505051031 11 29 6.4 16.1 0.00 0.00 0.00 44 1001.9
20260505050300 11 355 6.4 16.1 0.00 0.00 0.00 43 1001.9
20260505041707 12 322 6.4 16.1 0.00 0.00 0.00 44 1001.0
20260505041201 12 306 6.4 17.7 0.00 0.00 0.00 44 1001.0
20260505040655 12 26 4.8 17.7 0.00 0.00 0.00 44 1001.3
20260505040145 12 355 4.8 14.5 0.00 0.00 0.00 42 1001.3
20260505035639 12 355 6.4 20.9 0.00 0.00 0.00 42 1001.3
20260505035132 12 355 8.0 20.9 0.00 0.00 0.00 41 1001.5
20260505034627 12 12 8.0 20.9 0.00 0.00 0.00 40 1001.5
20260505034116 12 22 6.4 17.7 0.00 0.00 0.00 39 1001.5
20260505033614 12 5 4.8 17.7 0.00 0.00 0.00 39 1001.3
20260505033109 12 304 8.0 22.5 0.00 0.00 0.00 39 1001.3
20260505032825 12 0 6.4 22.5 0.00 0.00 0.00 38 1001.4
20260505032057 12 32 6.4 17.7 0.00 0.00 0.00 38 1001.4
20260505031547 12 63 8.0 22.5 0.00 0.00 0.00 39 1001.4
20260505031308 12 313 8.0 22.5 0.00 0.00 0.00 38 1001.4
20260505030539 12 30 8.0 22.5 0.00 0.00 0.00 39 1001.0
20260505030033 12 9 9.7 22.5 0.00 0.00 0.00 39 1001.0
20260505025742 13 0 9.7 22.5 0.00 0.00 0.00 39 1001.0
20260505025022 13 38 8.0 19.3 0.00 0.00 0.00 39 1001.2
20260505024523 13 355 6.4 19.3 0.00 0.00 0.00 39 1001.2
20260505024022 13 342 6.4 19.3 0.00 0.00 0.00 39 1001.2
20260505023744 13 337 4.8 19.3 0.00 0.00 0.00 38 1001.3
20260505023023 13 36 6.4 19.3 0.00 0.00 0.00 38 1001.3
20260505023018 13 26 8.0 17.7 0.00 0.00 0.00 37 1001.4
20260505022018 13 0 6.4 22.5 0.00 0.00 0.00 37 1000.9
20260505021519 13 34 8.0 22.5 0.00 0.00 0.00 36 1000.9
20260505021018 13 348 9.7 19.3 0.00 0.00 0.00 35 1000.9
20260505020520 13 0 9.7 32.2 0.00 0.00 0.00 35 1000.4
20260505020019 13 348 11.3 32.2 0.00 0.00 0.00 35 1000.5
20260505015519 13 15 11.3 30.6 0.00 0.00 0.00 34 1000.5
20260505015013 14 12 9.7 30.6 0.00 0.00 0.00 34 1000.7
20260505014502 14 11 8.0 24.1 0.00 0.00 0.00 35 1000.7
20260505014207 14 15 9.7 32.2 0.00 0.00 0.00 35 1000.8
20260505013445 14 37 9.7 32.2 0.00 0.00 0.00 35 1000.5
20260505012944 15 5 9.7 24.1 0.00 0.00 0.00 34 1000.5
20260505012444 15 343 9.7 24.1 0.00 0.00 0.00 34 1000.6
20260505011944 15 0 11.3 29.0 0.00 0.00 0.00 32 999.5
20260505011658 16 27 11.3 29.0 0.00 0.00 0.00 30 999.6
20260505010945 16 36 11.3 25.7 0.00 0.00 0.00 28 999.7
20260505010442 16 0 11.3 29.0 0.00 0.00 0.00 28 999.8
20260505010206 17 30 11.3 29.0 0.00 0.00 0.00 28 999.9
20260505005442 17 13 11.3 27.4 0.00 0.00 0.00 27 999.9
20260505004937 17 17 9.7 29.0 0.00 0.00 0.00 27 999.5
20260505004425 18 38 8.0 29.0 0.00 0.00 0.00 28 999.5
20260505003913 18 342 9.7 29.0 0.00 0.00 0.00 27 999.6
20260505003407 18 342 9.7 29.0 0.00 0.00 0.00 28 999.1
20260505002907 18 18 9.7 27.4 0.00 0.00 0.00 26 999.1
20260505002407 18 27 8.0 24.1 0.00 0.00 0.00 26 999.2
20260505001906 19 25 8.0 30.6 0.00 0.00 0.00 26 998.8
20260505001406 20 343 9.7 30.6 0.00 0.00 0.00 26 998.8
20260505000906 20 44 11.3 27.4 0.00 0.00 0.00 26 998.9
20260505000408 20 334 9.7 27.4 0.00 0.00 0.00 25 998.8
20260504235905 21 0 6.4 20.9 0.00 0.00 0.00 25 998.9
20260504235406 21 344 8.0 20.9 0.00 0.00 0.00 25 998.9
20260504234904 21 10 8.0 22.5 0.00 0.00 0.00 25 998.8
20260504234350 21 37 6.4 22.5 0.00 0.00 0.00 24 998.8
20260504233852 21 36 6.4 22.5 0.00 0.00 0.00 24 998.5
20260504233344 22 344 8.0 22.5 0.00 0.00 0.00 24 998.5
20260504232839 22 319 8.0 24.1 0.00 0.00 0.00 24 998.5
20260504232555 22 13 8.0 25.7 0.00 0.00 0.00 23 998.4
20260504231822 22 0 8.0 29.0 0.00 0.00 0.00 23 998.4
20260504231318 22 309 9.7 29.0 0.00 0.00 0.00 24 998.4
20260504230810 22 311 11.3 25.7 0.00 0.00 0.00 23 998.3
20260504230305 22 21 11.3 25.7 0.00 0.00 0.00 23 998.3
20260504230018 23 350 9.7 24.1 0.00 0.00 0.00 23 998.4
20260504225248 23 355 8.0 24.1 0.00 0.00 0.00 22 997.9
20260504224741 23 355 6.4 24.1 0.00 0.00 0.00 22 998.0
20260504224235 23 26 8.0 22.5 0.00 0.00 0.00 23 998.0
20260504223722 23 0 8.0 22.5 0.00 0.00 0.00 22 997.9
20260504223445 23 13 8.0 22.5 0.00 0.00 0.00 22 997.9
20260504222711 23 347 9.7 25.7 0.00 0.00 0.00 23 997.9
20260504222204 23 35 9.7 27.4 0.00 0.00 0.00 22 997.5
20260504221913 24 22 9.7 24.1 0.00 0.00 0.00 22 997.6
20260504221148 24 24 9.7 24.1 0.00 0.00 0.00 22 997.6
20260504220642 24 294 9.7 20.9 0.00 0.00 0.00 21 997.3
20260504220350 25 35 8.0 24.1 0.00 0.00 0.00 23 997.4
20260504215630 25 31 6.4 24.1 0.00 0.00 0.00 22 997.4
20260504215120 25 339 6.4 20.9 0.00 0.00 0.00 24 996.9
20260504214838 25 33 6.4 20.9 0.00 0.00 0.00 22 997.0
20260504214107 25 16 8.0 19.3 0.00 0.00 0.00 24 997.0
20260504213607 25 355 6.4 20.9 0.00 0.00 0.00 23 997.0
20260504213100 25 9 6.4 20.9 0.00 0.00 0.00 24 997.0
20260504212811 25 260 6.4 19.3 0.00 0.00 0.00 23 997.0
20260504212048 25 5 8.0 19.3 0.00 0.00 0.00 24 996.8
20260504211542 25 284 8.0 19.3 0.00 0.00 0.00 25 996.8
20260504211303 26 13 6.4 19.3 0.00 0.00 0.00 25 996.8
20260504210531 26 351 4.8 16.1 0.00 0.00 0.00 25 996.8
20260504210020 26 340 4.8 16.1 0.00 0.00 0.00 25 996.8
20260504205519 26 311 6.4 16.1 0.00 0.00 0.00 27 996.8
20260504205008 26 290 6.4 16.1 0.00 0.00 0.00 25 996.6
20260504204506 26 336 4.8 16.1 0.00 0.00 0.00 26 996.6
20260504204222 26 317 4.8 16.1 0.00 0.00 0.00 26 996.6
20260504203450 26 286 6.4 20.9 0.00 0.00 0.00 27 996.4
20260504202949 26 355 6.4 22.5 0.00 0.00 0.00 26 996.4
20260504202442 26 11 6.4 22.5 0.00 0.00 0.00 25 996.4
20260504201936 26 17 4.8 22.5 0.00 0.00 0.00 27 996.7
20260504201430 26 24 6.4 24.1 0.00 0.00 0.00 28 996.7
20260504200927 26 277 8.0 30.6 0.00 0.00 0.00 25 996.7
20260504200428 26 346 6.4 30.6 0.00 0.00 0.00 24 996.3
20260504195928 26 305 6.4 16.1 0.00 0.00 0.00 25 996.3
20260504195429 26 290 6.4 16.1 0.00 0.00 0.00 23 996.3
20260504194927 26 346 4.8 16.1 0.00 0.00 0.00 24 996.3
20260504194428 27 346 3.2 14.5 0.00 0.00 0.00 23 996.3
20260504193929 27 271 4.8 14.5 0.00 0.00 0.00 21 996.3
20260504193413 27 210 4.8 16.1 0.00 0.00 0.00 21 996.3
20260504192913 27 282 4.8 16.1 0.00 0.00 0.00 20 996.3
20260504192411 27 274 4.8 14.5 0.00 0.00 0.00 23 996.2
20260504191911 27 5 4.8 14.5 0.00 0.00 0.00 20 996.3
20260504191411 27 260 6.4 19.3 0.00 0.00 0.00 22 996.3
20260504190910 27 311 6.4 19.3 0.00 0.00 0.00 21 996.3
20260504190409 27 225 6.4 19.3 0.00 0.00 0.00 22 996.3
20260504185910 27 209 4.8 17.7 0.00 0.00 0.00 22 996.3
20260504185412 26 327 4.8 14.5 0.00 0.00 0.00 22 996.3
20260504184910 26 0 6.4 20.9 0.00 0.00 0.00 22 996.4
20260504184409 26 344 6.4 20.9 0.00 0.00 0.00 20 996.4
20260504183910 26 17 6.4 22.5 0.00 0.00 0.00 22 996.3
20260504183632 26 355 8.0 22.5 0.00 0.00 0.00 21 996.6
20260504182902 26 290 8.0 20.9 0.00 0.00 0.00 22 996.6
20260504182356 26 269 4.8 20.9 0.00 0.00 0.00 22 996.6
20260504181846 26 324 4.8 14.5 0.00 0.00 0.00 23 996.6
20260504181344 26 258 6.4 19.3 0.00 0.00 0.00 23 996.6
20260504180838 26 223 4.8 19.3 0.00 0.00 0.00 23 996.7
20260504180332 26 259 4.8 16.1 0.00 0.00 0.00 23 996.7
20260504175826 26 19 4.8 16.1 0.00 0.00 0.00 24 996.7
20260504175534 26 274 3.2 8.0 0.00 0.00 0.00 25 996.8
20260504175033 26 319 4.8 16.1 0.00 0.00 0.00 25 996.8
20260504174518 25 259 6.4 16.1 0.00 0.00 0.00 25 996.7
20260504174401 25 34 4.8 16.1 0.00 0.00 0.00 26 996.7
20260504173311 25 339 6.4 19.3 0.00 0.00 0.00 24 996.7
20260504172812 25 268 6.4 19.3 0.00 0.00 0.00 27 996.7
20260504172309 25 340 6.4 17.7 0.00 0.00 0.00 24 996.8
20260504172025 26 259 4.8 16.1 0.00 0.00 0.00 26 996.8
20260504171307 25 238 4.8 12.9 0.00 0.00 0.00 26 996.8
20260504170807 25 272 4.8 19.3 0.00 0.00 0.00 27 996.6
20260504170307 25 313 4.8 19.3 0.00 0.00 0.00 26 996.6
20260504150706 20 247 4.8 14.5 0.00 0.00 0.00 44 996.2
20260504150209 19 305 4.8 9.7 0.00 0.00 0.00 45 996.1
20260504141151 17 238 3.2 9.7 0.00 0.00 0.00 47 995.9
20260504140646 17 196 4.8 11.3 0.00 0.00 0.00 48 996.3
20260504140133 17 215 8.0 16.1 0.00 0.00 0.00 47 996.2
20260504130522 13 202 0.0 4.8 0.00 0.00 0.00 58 995.9
20260504120311 8 290 0.0 0.0 0.00 0.00 0.00 75 995.4
20260504110635 8 0 0.0 0.0 0.00 0.00 0.00 72 995.3
20260504110138 8 0 0.0 0.0 0.00 0.00 0.00 72 995.3
20260504100413 9 0 0.0 0.0 0.00 0.00 0.00 64 995.9